Time,TemperatureF,DewpointF,PressureIn,WindDirection,WindDirectionDegrees,WindSpeedMPH,WindSpeedGustMPH,Humidity,HourlyPrecipIn,Conditions,Clouds,dailyrainin,SoftwareType,DateUTC
2013-05-17 00:00:00,72.6,59.0,29.92,NW,305,8.0,12.0,62,0.00,,,0.00,weatherlink.com 1.10,2013-05-17 04:00:00,
2013-05-17 00:16:00,72.4,59.0,29.92,WNW,293,9.0,14.0,62,0.00,,,0.00,weatherlink.com 1.10,2013-05-17 04:16:00,
2013-05-17 00:31:00,72.0,59.0,29.93,NW,304,4.0,10.0,63,0.00,,,0.00,weatherlink.com 1.10,2013-05-17 04:31:00,
2013-05-17 00:46:00,71.8,58.0,29.93,WNW,295,4.0,11.0,63,0.00,,,0.00,weatherlink.com 1.10,2013-05-17 04:46:00,
2013-05-17 01:01:00,71.4,58.0,29.93,WNW,301,8.0,10.0,63,0.00,,,0.00,weatherlink.com 1.10,2013-05-17 05:01:00,
2013-05-17 01:16:00,70.8,58.0,29.93,NW,305,8.0,9.0,65,0.00,,,0.00,weatherlink.com 1.10,2013-05-17 05:16:00,
2013-05-17 01:31:00,70.4,58.0,29.93,NNW,331,3.0,7.0,66,0.00,,,0.00,weatherlink.com 1.10,2013-05-17 05:31:00,
2013-05-17 01:46:00,69.9,58.0,29.93,WNW,294,4.0,7.0,66,0.00,,,0.00,weatherlink.com 1.10,2013-05-17 05:46:00,
2013-05-17 02:01:00,69.4,58.0,29.93,WNW,302,8.0,9.0,68,0.00,,,0.00,weatherlink.com 1.10,2013-05-17 06:01:00,
2013-05-17 02:16:00,69.0,58.0,29.93,NW,305,5.0,7.0,68,0.00,,,0.00,weatherlink.com 1.10,2013-05-17 06:16:00,
2013-05-17 02:31:00,68.2,58.0,29.93,NW,324,4.0,8.0,70,0.00,,,0.00,weatherlink.com 1.10,2013-05-17 06:31:00,
2013-05-17 02:46:00,67.7,58.0,29.94,NW,311,5.0,5.0,71,0.00,,,0.00,weatherlink.com 1.10,2013-05-17 06:46:00,
2013-05-17 03:01:00,67.4,58.0,29.94,NNW,328,6.0,7.0,72,0.00,,,0.00,weatherlink.com 1.10,2013-05-17 07:01:00,
2013-05-17 03:16:00,67.3,58.0,29.95,North,5,6.0,7.0,73,0.00,,,0.00,weatherlink.com 1.10,2013-05-17 07:16:00,
2013-05-17 03:31:00,67.0,58.0,29.95,North,360,5.0,7.0,74,0.00,,,0.00,weatherlink.com 1.10,2013-05-17 07:31:00,
2013-05-17 03:46:00,67.0,58.0,29.95,NNW,331,3.0,8.0,74,0.00,,,0.00,weatherlink.com 1.10,2013-05-17 07:46:00,
2013-05-17 04:01:00,66.6,58.0,29.96,North,351,3.0,4.0,75,0.00,,,0.00,weatherlink.com 1.10,2013-05-17 08:01:00,
2013-05-17 04:16:00,65.6,58.0,29.96,NNW,340,1.0,2.0,77,0.00,,,0.00,weatherlink.com 1.10,2013-05-17 08:16:00,
2013-05-17 04:31:00,64.6,58.0,29.97,NW,324,2.0,3.0,78,0.00,,,0.00,weatherlink.com 1.10,2013-05-17 08:31:00,
2013-05-17 04:46:00,64.5,58.0,29.98,NW,307,4.0,6.0,79,0.00,,,0.00,weatherlink.com 1.10,2013-05-17 08:46:00,
2013-05-17 05:01:00,64.5,58.0,29.99,NW,309,3.0,5.0,79,0.00,,,0.00,weatherlink.com 1.10,2013-05-17 09:01:00,
2013-05-17 05:17:00,64.4,58.0,30.00,NNW,345,3.0,4.0,79,0.00,,,0.00,weatherlink.com 1.10,2013-05-17 09:17:00,
2013-05-17 05:32:00,64.7,58.0,30.01,NW,322,4.0,7.0,79,0.00,,,0.00,weatherlink.com 1.10,2013-05-17 09:32:00,
2013-05-17 05:47:00,64.7,58.0,30.02,North,5,2.0,6.0,79,0.00,,,0.00,weatherlink.com 1.10,2013-05-17 09:47:00,
2013-05-17 06:02:00,64.0,57.0,30.03,West,280,1.0,3.0,79,0.00,,,0.00,weatherlink.com 1.10,2013-05-17 10:02:00,
2013-05-17 06:17:00,63.9,58.0,30.04,West,270,1.0,2.0,80,0.00,,,0.00,weatherlink.com 1.10,2013-05-17 10:17:00,
2013-05-17 06:32:00,63.6,59.0,30.05,West,278,0.0,0.0,84,0.00,,,0.00,weatherlink.com 1.10,2013-05-17 10:32:00,
2013-05-17 06:47:00,63.7,59.0,30.06,West,278,0.0,1.0,83,0.00,,,0.00,weatherlink.com 1.10,2013-05-17 10:47:00,
2013-05-17 07:02:00,64.8,59.0,30.07,West,278,0.0,1.0,81,0.00,,,0.00,weatherlink.com 1.10,2013-05-17 11:02:00,
2013-05-17 07:17:00,66.0,59.0,30.07,West,278,0.0,0.0,77,0.00,,,0.00,weatherlink.com 1.10,2013-05-17 11:17:00,
2013-05-17 07:32:00,66.0,58.0,30.08,North,359,3.0,4.0,76,0.00,,,0.00,weatherlink.com 1.10,2013-05-17 11:32:00,
2013-05-17 07:47:00,66.2,58.0,30.08,North,359,3.0,3.0,76,0.00,,,0.00,weatherlink.com 1.10,2013-05-17 11:47:00,
2013-05-17 08:02:00,67.3,56.0,30.09,NNE,21,3.0,3.0,67,0.00,,,0.00,weatherlink.com 1.10,2013-05-17 12:02:00,
2013-05-17 08:17:00,68.3,55.0,30.09,ENE,63,3.0,5.0,63,0.00,,,0.00,weatherlink.com 1.10,2013-05-17 12:17:00,
2013-05-17 08:32:00,68.5,54.0,30.10,NE,56,4.0,5.0,61,0.00,,,0.00,weatherlink.com 1.10,2013-05-17 12:32:00,
2013-05-17 08:47:00,68.9,54.0,30.10,ENE,65,3.0,5.0,59,0.00,,,0.00,weatherlink.com 1.10,2013-05-17 12:47:00,
2013-05-17 09:02:00,68.9,54.0,30.10,ENE,68,4.0,4.0,60,0.00,,,0.00,weatherlink.com 1.10,2013-05-17 13:02:00,
2013-05-17 09:18:00,69.6,51.0,30.10,ENE,65,8.0,8.0,51,0.00,,,0.00,weatherlink.com 1.10,2013-05-17 13:18:00,
2013-05-17 09:32:00,69.7,48.0,30.11,ENE,77,8.0,9.0,46,0.00,,,0.00,weatherlink.com 1.10,2013-05-17 13:32:00,
2013-05-17 09:47:00,69.4,49.0,30.11,East,85,7.0,9.0,48,0.00,,,0.00,weatherlink.com 1.10,2013-05-17 13:47:00,
2013-05-17 10:02:00,69.3,49.0,30.11,East,84,8.0,9.0,48,0.00,,,0.00,weatherlink.com 1.10,2013-05-17 14:02:00,
2013-05-17 10:17:00,69.2,48.0,30.11,East,84,9.0,10.0,47,0.00,,,0.00,weatherlink.com 1.10,2013-05-17 14:17:00,
2013-05-17 10:32:00,69.2,47.0,30.11,East,91,10.0,10.0,45,0.00,,,0.00,weatherlink.com 1.10,2013-05-17 14:32:00,
2013-05-17 10:47:00,69.3,46.0,30.12,East,99,7.0,12.0,44,0.00,,,0.00,weatherlink.com 1.10,2013-05-17 14:47:00,
2013-05-17 11:02:00,69.4,45.0,30.12,East,97,11.0,11.0,41,0.00,,,0.00,weatherlink.com 1.10,2013-05-17 15:02:00,
2013-05-17 11:17:00,69.4,42.0,30.12,East,88,9.0,11.0,37,0.00,,,0.00,weatherlink.com 1.10,2013-05-17 15:17:00,
2013-05-17 11:32:00,69.1,46.0,30.12,East,90,12.0,12.0,43,0.00,,,0.00,weatherlink.com 1.10,2013-05-17 15:32:00,
2013-05-17 11:47:00,68.9,46.0,30.12,East,88,10.0,11.0,44,0.00,,,0.00,weatherlink.com 1.10,2013-05-17 15:47:00,
2013-05-17 12:02:00,68.6,49.0,30.12,East,93,7.0,10.0,49,0.00,,,0.00,weatherlink.com 1.10,2013-05-17 16:02:00,
2013-05-17 12:17:00,69.2,47.0,30.12,East,90,6.0,10.0,45,0.00,,,0.00,weatherlink.com 1.10,2013-05-17 16:17:00,
2013-05-17 12:32:00,69.3,48.0,30.11,ENE,78,9.0,11.0,47,0.00,,,0.00,weatherlink.com 1.10,2013-05-17 16:32:00,
2013-05-17 12:47:00,68.8,47.0,30.11,ENE,76,9.0,9.0,46,0.00,,,0.00,weatherlink.com 1.10,2013-05-17 16:47:00,
2013-05-17 13:02:00,69.6,48.0,30.11,East,81,8.0,8.0,47,0.00,,,0.00,weatherlink.com 1.10,2013-05-17 17:02:00,
2013-05-17 13:17:00,69.5,50.0,30.11,East,94,6.0,8.0,50,0.00,,,0.00,weatherlink.com 1.10,2013-05-17 17:17:00,
2013-05-17 13:33:00,69.8,49.0,30.11,East,79,6.0,6.0,47,0.00,,,0.00,weatherlink.com 1.10,2013-05-17 17:33:00,
2013-05-17 13:48:00,70.4,48.0,30.11,East,84,7.0,8.0,45,0.00,,,0.00,weatherlink.com 1.10,2013-05-17 17:48:00,
2013-05-17 14:03:00,71.0,49.0,30.11,ENE,72,6.0,7.0,45,0.00,,,0.00,weatherlink.com 1.10,2013-05-17 18:03:00,
2013-05-17 14:18:00,71.7,48.0,30.11,ESE,119,6.0,9.0,43,0.00,,,0.00,weatherlink.com 1.10,2013-05-17 18:18:00,
2013-05-17 14:33:00,73.4,47.0,30.11,South,176,5.0,9.0,39,0.00,,,0.00,weatherlink.com 1.10,2013-05-17 18:33:00,
2013-05-17 14:48:00,74.2,45.0,30.10,SE,131,4.0,8.0,36,0.00,,,0.00,weatherlink.com 1.10,2013-05-17 18:48:00,
2013-05-17 15:03:00,74.7,45.0,30.10,SE,143,5.0,8.0,35,0.00,,,0.00,weatherlink.com 1.10,2013-05-17 19:03:00,
2013-05-17 15:18:00,74.4,45.0,30.10,SE,138,7.0,10.0,35,0.00,,,0.00,weatherlink.com 1.10,2013-05-17 19:18:00,
2013-05-17 15:33:00,74.9,46.0,30.09,SE,131,4.0,7.0,36,0.00,,,0.00,weatherlink.com 1.10,2013-05-17 19:33:00,
2013-05-17 15:48:00,75.3,47.0,30.09,SE,132,5.0,10.0,37,0.00,,,0.00,weatherlink.com 1.10,2013-05-17 19:48:00,
2013-05-17 16:03:00,74.8,47.0,30.09,SE,143,5.0,8.0,38,0.00,,,0.00,weatherlink.com 1.10,2013-05-17 20:03:00,
2013-05-17 16:18:00,75.5,47.0,30.09,SE,129,8.0,9.0,37,0.00,,,0.00,weatherlink.com 1.10,2013-05-17 20:18:00,
2013-05-17 16:33:00,76.1,47.0,30.09,SSE,167,7.0,12.0,36,0.00,,,0.00,weatherlink.com 1.10,2013-05-17 20:33:00,
2013-05-17 16:48:00,76.2,49.0,30.09,SSE,152,7.0,10.0,39,0.00,,,0.00,weatherlink.com 1.10,2013-05-17 20:48:00,
2013-05-17 17:03:00,76.4,49.0,30.09,SSE,162,6.0,9.0,38,0.00,,,0.00,weatherlink.com 1.10,2013-05-17 21:03:00,
2013-05-17 17:18:00,76.4,50.0,30.09,South,176,5.0,7.0,39,0.00,,,0.00,weatherlink.com 1.10,2013-05-17 21:18:00,
2013-05-17 17:33:00,76.2,50.0,30.09,SE,142,5.0,8.0,40,0.00,,,0.00,weatherlink.com 1.10,2013-05-17 21:33:00,
2013-05-17 17:48:00,75.8,49.0,30.09,SE,141,3.0,9.0,39,0.00,,,0.00,weatherlink.com 1.10,2013-05-17 21:48:00,
2013-05-17 18:03:00,75.9,49.0,30.09,South,170,6.0,7.0,39,0.00,,,0.00,weatherlink.com 1.10,2013-05-17 22:03:00,
2013-05-17 18:18:00,75.7,50.0,30.09,SSE,152,4.0,6.0,40,0.00,,,0.00,weatherlink.com 1.10,2013-05-17 22:18:00,
2013-05-17 18:33:00,75.6,48.0,30.09,ESE,120,3.0,7.0,38,0.00,,,0.00,weatherlink.com 1.10,2013-05-17 22:33:00,
2013-05-17 18:48:00,75.8,50.0,30.09,SE,139,2.0,4.0,40,0.00,,,0.00,weatherlink.com 1.10,2013-05-17 22:48:00,
2013-05-17 19:03:00,75.8,50.0,30.09,ESE,115,3.0,5.0,40,0.00,,,0.00,weatherlink.com 1.10,2013-05-17 23:03:00,
2013-05-17 19:18:00,75.6,50.0,30.09,SE,128,3.0,4.0,41,0.00,,,0.00,weatherlink.com 1.10,2013-05-17 23:18:00,
2013-05-17 19:33:00,75.2,52.0,30.10,SE,143,2.0,3.0,44,0.00,,,0.00,weatherlink.com 1.10,2013-05-17 23:33:00,
2013-05-17 19:48:00,74.2,52.0,30.10,SE,131,2.0,3.0,46,0.00,,,0.00,weatherlink.com 1.10,2013-05-17 23:48:00,
2013-05-17 20:03:00,72.8,55.0,30.11,SW,224,1.0,2.0,53,0.00,,,0.00,weatherlink.com 1.10,2013-05-18 00:03:00,
2013-05-17 20:18:00,71.9,56.0,30.11,South,169,3.0,6.0,57,0.00,,,0.00,weatherlink.com 1.10,2013-05-18 00:18:00,
2013-05-17 20:33:00,71.3,55.0,30.12,SSW,206,2.0,7.0,56,0.00,,,0.00,weatherlink.com 1.10,2013-05-18 00:33:00,
2013-05-17 20:48:00,71.2,56.0,30.12,SSW,205,4.0,7.0,58,0.00,,,0.00,weatherlink.com 1.10,2013-05-18 00:48:00,
2013-05-17 21:03:00,70.6,58.0,30.12,SSW,204,5.0,13.0,64,0.00,,,0.00,weatherlink.com 1.10,2013-05-18 01:03:00,
2013-05-17 21:18:00,70.1,58.0,30.13,SSW,203,7.0,9.0,66,0.00,,,0.00,weatherlink.com 1.10,2013-05-18 01:18:00,
2013-05-17 21:33:00,69.9,59.0,30.13,SSW,205,7.0,11.0,69,0.00,,,0.00,weatherlink.com 1.10,2013-05-18 01:33:00,
2013-05-17 21:48:00,69.5,59.0,30.14,SE,135,13.0,13.0,69,0.00,,,0.00,weatherlink.com 1.10,2013-05-18 01:48:00,
2013-05-17 22:03:00,69.2,60.0,30.14,SSW,200,8.0,14.0,72,0.00,,,0.00,weatherlink.com 1.10,2013-05-18 02:03:00,
2013-05-17 22:18:00,68.8,60.0,30.15,SSW,194,5.0,12.0,74,0.00,,,0.00,weatherlink.com 1.10,2013-05-18 02:18:00,
2013-05-17 22:33:00,68.4,60.0,30.15,SSW,193,6.0,9.0,75,0.00,,,0.00,weatherlink.com 1.10,2013-05-18 02:33:00,
2013-05-17 22:48:00,68.0,61.0,30.16,SSE,164,7.0,11.0,77,0.00,,,0.00,weatherlink.com 1.10,2013-05-18 02:48:00,
2013-05-17 23:04:00,67.8,60.0,30.16,SSW,204,9.0,12.0,75,0.00,,,0.00,weatherlink.com 1.10,2013-05-18 03:04:00,
2013-05-17 23:18:00,67.6,59.0,30.16,South,183,9.0,10.0,74,0.00,,,0.00,weatherlink.com 1.10,2013-05-18 03:18:00,
2013-05-17 23:33:00,67.1,60.0,30.17,SSE,150,5.0,9.0,77,0.00,,,0.00,weatherlink.com 1.10,2013-05-18 03:33:00,
2013-05-17 23:48:00,66.5,56.0,30.17,SSE,162,8.0,11.0,70,0.00,,,0.00,weatherlink.com 1.10,2013-05-18 03:48:00,